Погода в Панахачели

Гватемала     14°44′34″N   91°09′23″W
темп.,
°C
ветер,
м/с
пор.,
м/с
влажн.,
%
обл.,
%
осадки,
мм/ч
давл.,
гПа
погр.,
м
27 февраля, сб
сб2700:00+12ссв338936 0.0 101590
03:00+11с228879 0.0 101348
06:00+10с228169 0.0 101331
09:00+19ю114842 0.0 1014819
12:00+22ю334521 0.0 10131336
15:00+17ю227574 0.1 1010588
18:00+15ю128879 0.2 1011186
21:00+12ссв229032 0.0 101439
28 февраля, вс
вс2800:00+12с229018 0.0 101445
03:00+11с22890 0.0 101230
06:00+10с22870 0.0 101429
09:00+19ю11550 0.0 1014774
12:00+22ю32450 0.0 10121323
15:00+18ю236852 0.1 1009776
18:00+14ю118756 0.2 101180
21:00+12ссв337929 0.0 101348
1 марта, пн
пн100:00+12ссв229014 0.0 101339
03:00+11с22910 0.0 101233
06:00+11с22850 0.0 101328
09:00+20ю11520 0.0 1014804
12:00+23ю334123 0.0 10121486
15:00+20ю336076 0.1 10091009
18:00+15ю118671 0.2 101163
21:00+13ссв229124 0.1 101441
2 марта, вт
вт200:00+12ссв239114 0.1 101472
03:00+11ссв33903 0.0 101367
06:00+10с34852 0.0 101498
09:00+18ссв23410 0.0 1016677
12:00+23вюв132713 0.0 10131685
15:00+22вюв243520 0.0 10111844
18:00+15всв137636 0.1 1012168
21:00+12ссв458767 0.0 1016174
3 марта, ср
ср300:00+11ссв458536 0.0 1016166
03:00+10ссв457850 0.0 1015143
06:00+10ссв348175 0.0 101698
09:00+18св2350100 0.0 1017720
12:00+23юв1333100 0.0 10151538
15:00+22юв243854 0.0 10121754
18:00+14юв127850 0.1 101483
21:00+11ссв348287 0.0 101693